User: anonymous   Login
Location: Le Petit-Vavre
(46.5081°N, 1.5239°E)
Time: 04:40:29
(UTC+00:00)
Language:

Meteor 1-11 Rocket - Orbit

View from above orbital plane
View from above orbital plane
View from above satellite
View from above satellite

Ground track
Ground track

The orbit data is extracted from the following two-line orbital elements,

1  5918U 72022B   21128.42216738 -.00000005  00000-0 -10319-4 0  9998
2  5918  81.2413  30.9907 0057293 293.9227  65.5946 14.05885757517684
Epoch (UTC): 08 May 2021 10:07:55
Eccentricity: 0.0057293
inclination: 81.2413°
perigee height: 832 km
apogee height: 915 km
right ascension of ascending node: 30.9907°
argument of perigee: 293.9227°
revolutions per day: 14.05885757
mean anomaly at epoch: 65.5946°
orbit number at epoch: 51768

The dashed part of the orbit path shows where the satellite is in the earth's shadow,  

DLR